When you browse on this site, cookies collect data to enhance your experience and personalize the content and advertising you see.
Visit our Privacy Policy to learn more. By continuing to use the site, you agree to this use of cookies and data.
  • In Hungary
  • List of Countries
  • For 7 days
  • Water Temperature
  • Satellite Maps
  • Weather Map
  • News
  • Weather Widgets
  • user-avatar
    Login

    Hourly Weather Ashaga-Stal

    Today, 20 November, Tuesday

    Time Temperature Precipitation Wind Pressure Humidity
    00:00 +4°C° 0 mm 3 mps 723 mmHg 58%
    01:00 +5°C° 0 mm 3 mps 722 mmHg 58%
    02:00 +5°C° 0 mm 3 mps 722 mmHg 57%
    03:00 +5°C° 0 mm 3 mps 722 mmHg 58%
    04:00 +5°C° 0 mm 3 mps 721 mmHg 58%
    05:00 +5°C° 0 mm 3 mps 721 mmHg 57%
    06:00 +6°C° 0 mm 2 mps 721 mmHg 57%
    07:00 +8°C° 0 mm 2 mps 721 mmHg 54%
    08:00 +9°C° 0 mm 2 mps 720 mmHg 52%
    09:00 +12°C° 0 mm 2 mps 720 mmHg 49%
    10:00 +13°C° 0 mm 2 mps 720 mmHg 48%
    11:00 +14°C° 0 mm 2 mps 719 mmHg 47%
    12:00 +15°C° 0 mm 1 mps 719 mmHg 46%
    13:00 +15°C° 0 mm 1 mps 718 mmHg 49%
    14:00 +15°C° 0 mm 1 mps 718 mmHg 51%
    15:00 +13°C° 0 mm 2 mps 717 mmHg 62%
    16:00 +12°C° 0 mm 2 mps 717 mmHg 65%
    17:00 +10°C° 0 mm 3 mps 717 mmHg 68%
    18:00 +10°C° 0 mm 3 mps 717 mmHg 70%
    19:00 +10°C° 0 mm 2 mps 717 mmHg 68%
    20:00 +10°C° 0 mm 2 mps 717 mmHg 66%
    21:00 +10°C° 0 mm 2 mps 716 mmHg 64%
    22:00 +9°C° 0 mm 2 mps 716 mmHg 65%
    23:00 +9°C° 0 mm 2 mps 716 mmHg 66%

    Tomorrow, 21 November, Wednesday

    Time Temperature Precipitation Wind Pressure Humidity
    00:00 +9°C° 0 mm 2 mps 716 mmHg 66%
    01:00 +9°C° 0 mm 2 mps 716 mmHg 69%
    02:00 +8°C° 0 mm 3 mps 716 mmHg 71%
    03:00 +8°C° 0 mm 3 mps 716 mmHg 74%
    04:00 +7°C° 0 mm 3 mps 716 mmHg 76%
    05:00 +7°C° 0 mm 3 mps 716 mmHg 78%
    06:00 +7°C° 0 mm 3 mps 717 mmHg 80%
    07:00 +8°C° 0 mm 3 mps 717 mmHg 77%
    08:00 +8°C° 0 mm 3 mps 717 mmHg 74%
    09:00 +9°C° 0 mm 3 mps 718 mmHg 71%
    10:00 +9°C° 0 mm 3 mps 718 mmHg 72%
    11:00 +9°C° 0 mm 3 mps 717 mmHg 73%
    12:00 +10°C° 0 mm 4 mps 717 mmHg 74%
    13:00 +9°C° 0.2 mm 3 mps 717 mmHg 78%
    14:00 +8°C° 0.2 mm 3 mps 717 mmHg 83%
    15:00 +8°C° 0.2 mm 3 mps 717 mmHg 87%
    16:00 +7°C° 0.1 mm 3 mps 718 mmHg 88%
    17:00 +7°C° 0.1 mm 3 mps 718 mmHg 89%
    18:00 +7°C° 0.1 mm 2 mps 718 mmHg 89%
    19:00 +7°C° 0.1 mm 2 mps 718 mmHg 90%
    20:00 +6°C° 0.1 mm 2 mps 718 mmHg 90%
    21:00 +6°C° 0.1 mm 2 mps 718 mmHg 91%
    22:00 +6°C° 0 mm 2 mps 718 mmHg 91%
    23:00 +6°C° 0 mm 2 mps 718 mmHg 91%

    Day after tomorrow, 22 November, Thursday

    Time Temperature Precipitation Wind Pressure Humidity
    00:00 +6°C° 0 mm 2 mps 718 mmHg 90%
    01:00 +6°C° 0 mm 2 mps 717 mmHg 90%
    02:00 +7°C° 0 mm 1 mps 717 mmHg 90%
    03:00 +7°C° 0 mm 1 mps 717 mmHg 90%
    04:00 +7°C° 0 mm 1 mps 717 mmHg 90%
    05:00 +7°C° 0 mm 1 mps 717 mmHg 89%
    06:00 +6°C° 0 mm 1 mps 717 mmHg 89%
    07:00 +7°C° 0 mm 1 mps 717 mmHg 86%
    08:00 +8°C° 0 mm 1 mps 717 mmHg 84%
    09:00 +7°C° 0 mm 2 mps 717 mmHg 82%
    10:00 +8°C° 0 mm 2 mps 717 mmHg 81%
    11:00 +8°C° 0 mm 2 mps 716 mmHg 81%
    12:00 +9°C° 0 mm 2 mps 716 mmHg 80%
    13:00 +8°C° 0 mm 2 mps 716 mmHg 82%
    14:00 +8°C° 0 mm 2 mps 716 mmHg 84%
    15:00 +8°C° 0 mm 2 mps 715 mmHg 85%
    16:00 +8°C° 0 mm 2 mps 715 mmHg 87%
    17:00 +7°C° 0 mm 2 mps 716 mmHg 88%
    18:00 +7°C° 0 mm 2 mps 716 mmHg 90%
    19:00 +7°C° 0 mm 2 mps 716 mmHg 89%
    20:00 +7°C° 0 mm 2 mps 716 mmHg 89%
    21:00 +6°C° 0 mm 2 mps 716 mmHg 88%
    22:00 +6°C° 0 mm 2 mps 716 mmHg 88%
    23:00 +6°C° 0 mm 2 mps 716 mmHg 88%

    23 November, Friday

    Time Temperature Precipitation Wind Pressure Humidity
    00:00 +6°C° 0 mm 2 mps 716 mmHg 88%
    01:00 +6°C° 0 mm 2 mps 716 mmHg 87%
    02:00 +6°C° 0 mm 2 mps 716 mmHg 87%
    03:00 +5°C° 0 mm 2 mps 716 mmHg 86%
    04:00 +5°C° 0 mm 2 mps 716 mmHg 86%
    05:00 +5°C° 0 mm 2 mps 716 mmHg 85%
    06:00 +5°C° 0 mm 2 mps 716 mmHg 85%
    07:00 +6°C° 0 mm 2 mps 717 mmHg 82%
    08:00 +7°C° 0 mm 2 mps 717 mmHg 80%
    09:00 +7°C° 0 mm 2 mps 717 mmHg 77%
    10:00 +8°C° 0 mm 3 mps 717 mmHg 76%
    11:00 +8°C° 0 mm 3 mps 717 mmHg 76%
    12:00 +8°C° 0 mm 3 mps 717 mmHg 76%
    13:00 +8°C° 0 mm 3 mps 717 mmHg 78%
    14:00 +8°C° 0 mm 3 mps 718 mmHg 80%
    15:00 +7°C° 0 mm 3 mps 718 mmHg 83%
    16:00 +7°C° 0.1 mm 3 mps 718 mmHg 85%
    17:00 +5°C° 0.1 mm 3 mps 719 mmHg 87%
    18:00 +4°C° 0.1 mm 3 mps 720 mmHg 90%
    19:00 +4°C° 0.1 mm 3 mps 721 mmHg 88%
    20:00 +4°C° 0.1 mm 4 mps 722 mmHg 87%
    21:00 +4°C° 0.1 mm 4 mps 722 mmHg 86%
    22:00 +3°C° 0 mm 4 mps 723 mmHg 85%
    23:00 +2°C° 0 mm 5 mps 724 mmHg 84%

    24 November, Saturday

    Time Temperature Precipitation Wind Pressure Humidity
    00:00 +1°C° 0 mm 5 mps 724 mmHg 83%
    01:00 +1°C° 0 mm 4 mps 725 mmHg 84%
    02:00 +1°C° 0 mm 4 mps 725 mmHg 84%
    03:00 +1°C° 0 mm 3 mps 725 mmHg 85%
    04:00 +1°C° 0 mm 3 mps 726 mmHg 85%
    05:00 +1°C° 0 mm 3 mps 726 mmHg 85%
    06:00 +2°C° 0 mm 2 mps 727 mmHg 85%
    07:00 +3°C° 0 mm 2 mps 727 mmHg 81%
    08:00 +3°C° 0 mm 2 mps 728 mmHg 77%
    09:00 +4°C° 0 mm 2 mps 729 mmHg 73%
    10:00 +5°C° 0 mm 2 mps 729 mmHg 72%
    11:00 +5°C° 0 mm 2 mps 729 mmHg 70%
    12:00 +6°C° 0 mm 2 mps 729 mmHg 69%
    13:00 +5°C° 0 mm 3 mps 729 mmHg 70%
    14:00 +5°C° 0 mm 3 mps 728 mmHg 72%
    15:00 +5°C° 0 mm 3 mps 728 mmHg 73%
    16:00 +4°C° 0 mm 3 mps 728 mmHg 75%
    17:00 +4°C° 0 mm 3 mps 728 mmHg 77%
    18:00 +3°C° 0 mm 3 mps 728 mmHg 79%
    19:00 +3°C° 0 mm 3 mps 728 mmHg 78%
    20:00 +3°C° 0 mm 4 mps 728 mmHg 76%
    21:00 +3°C° 0 mm 4 mps 727 mmHg 75%
    22:00 +3°C° 0 mm 4 mps 727 mmHg 73%
    23:00 +3°C° 0 mm 3 mps 726 mmHg 72%

    25 November, Sunday

    Time Temperature Precipitation Wind Pressure Humidity
    00:00 +4°C° 0 mm 3 mps 726 mmHg 70%
    01:00 +4°C° 0 mm 3 mps 725 mmHg 69%
    02:00 +4°C° 0 mm 3 mps 725 mmHg 68%
    03:00 +4°C° 0 mm 3 mps 724 mmHg 67%
    04:00 +4°C° 0 mm 3 mps 724 mmHg 66%
    05:00 +4°C° 0 mm 3 mps 723 mmHg 65%
    06:00 +5°C° 0 mm 2 mps 723 mmHg 64%
    07:00 +7°C° 0 mm 2 mps 723 mmHg 61%
    08:00 +8°C° 0 mm 2 mps 722 mmHg 57%
    09:00 +9°C° 0 mm 2 mps 722 mmHg 53%
    10:00 +10°C° 0 mm 2 mps 722 mmHg 52%
    11:00 +12°C° 0 mm 2 mps 721 mmHg 51%
    12:00 +13°C° 0 mm 2 mps 720 mmHg 50%
    13:00 +12°C° 0 mm 2 mps 720 mmHg 53%
    14:00 +12°C° 0 mm 2 mps 719 mmHg 56%
    15:00 +12°C° 0 mm 2 mps 719 mmHg 59%
    16:00 +10°C° 0 mm 2 mps 719 mmHg 62%
    17:00 +8°C° 0 mm 2 mps 719 mmHg 64%
    18:00 +7°C° 0 mm 2 mps 719 mmHg 67%
    19:00 +7°C° 0 mm 2 mps 719 mmHg 66%
    20:00 +7°C° 0 mm 2 mps 719 mmHg 64%
    21:00 +8°C° 0 mm 1 mps 718 mmHg 63%
    22:00 +7°C° 0 mm 2 mps 718 mmHg 62%
    23:00 +7°C° 0 mm 2 mps 718 mmHg 61%
    Show more